Time,TemperatureF,DewpointF,PressureIn,WindDirection,WindDirectionDegrees,WindSpeedMPH,WindSpeedGustMPH,Humidity,HourlyPrecipIn,Conditions,Clouds,dailyrainin,SoftwareType,DateUTC
2013-01-15 00:03:00,29.6,25.1,29.48,WSW,240,3.0,16.0,83,0.00,,,0.00,Weather View 32 v70,2013-01-15 09:03:00,
2013-01-15 00:08:00,29.3,25.1,29.48,WSW,240,3.0,16.0,84,0.00,,,0.00,Weather View 32 v70,2013-01-15 09:08:00,
2013-01-15 00:13:00,29.2,25.0,29.48,WSW,240,4.0,16.0,84,0.00,,,0.00,Weather View 32 v70,2013-01-15 09:13:00,
2013-01-15 00:18:00,29.1,24.6,29.49,WSW,240,3.0,16.0,83,0.00,,,0.00,Weather View 32 v70,2013-01-15 09:18:00,
2013-01-15 00:23:00,29.1,24.6,29.49,WSW,240,4.0,16.0,83,0.00,,,0.00,Weather View 32 v70,2013-01-15 09:23:00,
2013-01-15 00:28:00,29.0,24.5,29.50,WSW,240,1.0,16.0,83,0.00,,,0.00,Weather View 32 v70,2013-01-15 09:28:00,
2013-01-15 00:33:00,28.9,24.1,29.50,WSW,240,3.0,16.0,82,0.00,,,0.00,Weather View 32 v70,2013-01-15 09:33:00,
2013-01-15 00:38:00,28.8,24.0,29.50,WSW,240,1.0,16.0,82,0.00,,,0.00,Weather View 32 v70,2013-01-15 09:38:00,
2013-01-15 00:43:00,28.7,24.2,29.50,WSW,240,3.0,16.0,83,0.00,,,0.00,Weather View 32 v70,2013-01-15 09:43:00,
2013-01-15 00:48:00,28.7,24.5,29.51,WSW,240,2.0,16.0,84,0.00,,,0.00,Weather View 32 v70,2013-01-15 09:48:00,
2013-01-15 00:53:00,28.6,24.4,29.51,WSW,240,1.0,16.0,84,0.00,,,0.00,Weather View 32 v70,2013-01-15 09:53:00,
2013-01-15 00:58:00,28.5,24.3,29.51,WSW,240,5.0,16.0,84,0.00,,,0.00,Weather View 32 v70,2013-01-15 09:58:00,
2013-01-15 01:03:00,28.2,24.3,29.52,WSW,240,3.0,11.0,85,0.00,,,0.00,Weather View 32 v70,2013-01-15 10:03:00,
2013-01-15 01:08:00,27.9,24.0,29.52,WSW,240,3.0,11.0,85,0.00,,,0.00,Weather View 32 v70,2013-01-15 10:08:00,
2013-01-15 01:13:00,27.5,23.6,29.53,WSW,240,3.0,11.0,85,0.00,,,0.00,Weather View 32 v70,2013-01-15 10:13:00,
2013-01-15 01:18:00,27.3,23.4,29.53,WSW,240,3.0,11.0,85,0.00,,,0.00,Weather View 32 v70,2013-01-15 10:18:00,
2013-01-15 01:23:00,27.1,23.2,29.53,WSW,240,5.0,11.0,85,0.00,,,0.00,Weather View 32 v70,2013-01-15 10:23:00,
2013-01-15 01:28:00,27.1,23.2,29.54,WSW,240,3.0,11.0,85,0.00,,,0.00,Weather View 32 v70,2013-01-15 10:28:00,
2013-01-15 01:33:00,26.9,22.4,29.54,WSW,240,2.0,15.0,83,0.00,,,0.00,Weather View 32 v70,2013-01-15 10:33:00,
2013-01-15 01:38:00,26.8,22.0,29.55,WSW,240,2.0,15.0,82,0.00,,,0.00,Weather View 32 v70,2013-01-15 10:38:00,
2013-01-15 01:43:00,26.6,21.3,29.55,WSW,240,6.0,15.0,80,0.00,,,0.00,Weather View 32 v70,2013-01-15 10:43:00,
2013-01-15 01:48:00,26.4,21.1,29.55,WSW,240,6.0,15.0,80,0.00,,,0.00,Weather View 32 v70,2013-01-15 10:48:00,
2013-01-15 01:53:00,26.2,19.7,29.56,WSW,240,4.0,15.0,76,0.00,,,0.00,Weather View 32 v70,2013-01-15 10:53:00,
2013-01-15 01:58:00,26.0,19.5,29.57,WSW,240,7.0,15.0,76,0.00,,,0.00,Weather View 32 v70,2013-01-15 10:58:00,
2013-01-15 02:03:00,25.9,19.4,29.57,WSW,240,1.0,15.0,76,0.00,,,0.00,Weather View 32 v70,2013-01-15 11:03:00,
2013-01-15 02:08:00,25.7,18.9,29.57,WSW,240,3.0,15.0,75,0.00,,,0.00,Weather View 32 v70,2013-01-15 11:08:00,
2013-01-15 02:13:00,25.5,18.7,29.58,WSW,240,7.0,15.0,75,0.00,,,0.00,Weather View 32 v70,2013-01-15 11:13:00,
2013-01-15 02:18:00,25.3,18.5,29.58,WSW,240,3.0,15.0,75,0.00,,,0.00,Weather View 32 v70,2013-01-15 11:18:00,
2013-01-15 02:23:00,25.1,18.3,29.58,WSW,240,8.0,15.0,75,0.00,,,0.00,Weather View 32 v70,2013-01-15 11:23:00,
2013-01-15 02:28:00,24.9,18.1,29.58,WSW,240,4.0,15.0,75,0.00,,,0.00,Weather View 32 v70,2013-01-15 11:28:00,
2013-01-15 02:33:00,24.8,18.3,29.59,WSW,240,2.0,14.0,76,0.00,,,0.00,Weather View 32 v70,2013-01-15 11:33:00,
2013-01-15 02:38:00,24.6,18.1,29.59,WSW,240,4.0,14.0,76,0.00,,,0.00,Weather View 32 v70,2013-01-15 11:38:00,
2013-01-15 02:43:00,24.5,18.3,29.60,WSW,240,3.0,13.0,77,0.00,,,0.00,Weather View 32 v70,2013-01-15 11:43:00,
2013-01-15 02:48:00,24.4,17.6,29.60,WSW,240,5.0,13.0,75,0.00,,,0.00,Weather View 32 v70,2013-01-15 11:48:00,
2013-01-15 02:53:00,24.3,17.5,29.60,WSW,240,3.0,13.0,75,0.00,,,0.00,Weather View 32 v70,2013-01-15 11:53:00,
2013-01-15 02:58:00,24.1,17.3,29.61,WSW,240,4.0,13.0,75,0.00,,,0.00,Weather View 32 v70,2013-01-15 11:58:00,
2013-01-15 03:03:00,23.8,16.7,29.61,WSW,240,1.0,13.0,74,0.00,,,0.00,Weather View 32 v70,2013-01-15 12:03:00,
2013-01-15 03:08:00,23.6,16.5,29.61,WSW,240,5.0,13.0,74,0.00,,,0.00,Weather View 32 v70,2013-01-15 12:08:00,
2013-01-15 03:13:00,23.3,16.2,29.62,WSW,240,6.0,13.0,74,0.00,,,0.00,Weather View 32 v70,2013-01-15 12:13:00,
2013-01-15 03:18:00,23.1,15.7,29.62,WSW,240,7.0,13.0,73,0.00,,,0.00,Weather View 32 v70,2013-01-15 12:18:00,
2013-01-15 03:23:00,22.8,15.8,29.62,WSW,240,3.0,13.0,74,0.00,,,0.00,Weather View 32 v70,2013-01-15 12:23:00,
2013-01-15 03:28:00,22.7,15.7,29.63,WSW,240,4.0,13.0,74,0.00,,,0.00,Weather View 32 v70,2013-01-15 12:28:00,
2013-01-15 03:33:00,22.5,15.5,29.63,WSW,240,4.0,13.0,74,0.00,,,0.00,Weather View 32 v70,2013-01-15 12:33:00,
2013-01-15 03:38:00,22.3,15.0,29.63,WSW,240,9.0,13.0,73,0.00,,,0.00,Weather View 32 v70,2013-01-15 12:38:00,
2013-01-15 03:43:00,21.9,13.6,29.64,WSW,240,4.0,15.0,70,0.00,,,0.00,Weather View 32 v70,2013-01-15 12:43:00,
2013-01-15 03:48:00,21.6,13.3,29.64,WSW,240,6.0,15.0,70,0.00,,,0.00,Weather View 32 v70,2013-01-15 12:48:00,
2013-01-15 03:53:00,21.3,13.0,29.65,WSW,240,5.0,15.0,70,0.00,,,0.00,Weather View 32 v70,2013-01-15 12:53:00,
2013-01-15 03:58:00,21.0,13.1,29.65,WSW,240,4.0,15.0,71,0.00,,,0.00,Weather View 32 v70,2013-01-15 12:58:00,
2013-01-15 04:03:00,20.8,12.9,29.65,WSW,240,4.0,15.0,71,0.00,,,0.00,Weather View 32 v70,2013-01-15 13:03:00,
2013-01-15 04:08:00,20.6,13.0,29.65,WSW,240,3.0,15.0,72,0.00,,,0.00,Weather View 32 v70,2013-01-15 13:08:00,
2013-01-15 04:13:00,20.2,12.3,29.66,WSW,240,7.0,15.0,71,0.00,,,0.00,Weather View 32 v70,2013-01-15 13:13:00,
2013-01-15 04:18:00,19.8,11.9,29.66,WSW,240,11.0,15.0,71,0.00,,,0.00,Weather View 32 v70,2013-01-15 13:18:00,
2013-01-15 04:23:00,19.4,11.5,29.66,WSW,240,4.0,15.0,71,0.00,,,0.00,Weather View 32 v70,2013-01-15 13:23:00,
2013-01-15 04:28:00,19.1,11.2,29.66,WSW,240,1.0,15.0,71,0.00,,,0.00,Weather View 32 v70,2013-01-15 13:28:00,
2013-01-15 04:33:00,18.7,11.2,29.67,WSW,240,6.0,15.0,72,0.00,,,0.00,Weather View 32 v70,2013-01-15 13:33:00,
2013-01-15 04:38:00,18.5,10.7,29.67,WSW,240,7.0,15.0,71,0.00,,,0.00,Weather View 32 v70,2013-01-15 13:38:00,
2013-01-15 04:43:00,18.2,10.4,29.67,WSW,240,4.0,15.0,71,0.00,,,0.00,Weather View 32 v70,2013-01-15 13:43:00,
2013-01-15 04:48:00,17.9,9.8,29.67,WSW,240,3.0,14.0,70,0.00,,,0.00,Weather View 32 v70,2013-01-15 13:48:00,
2013-01-15 04:53:00,17.6,9.5,29.67,WSW,240,6.0,13.0,70,0.00,,,0.00,Weather View 32 v70,2013-01-15 13:53:00,
2013-01-15 04:58:00,17.4,9.3,29.68,WSW,240,3.0,13.0,70,0.00,,,0.00,Weather View 32 v70,2013-01-15 13:58:00,
2013-01-15 05:03:00,17.2,9.1,29.68,WSW,240,6.0,13.0,70,0.00,,,0.00,Weather View 32 v70,2013-01-15 14:03:00,
2013-01-15 05:08:00,17.0,8.9,29.68,WSW,240,2.0,13.0,70,0.00,,,0.00,Weather View 32 v70,2013-01-15 14:08:00,
2013-01-15 05:13:00,16.9,9.1,29.69,WSW,240,5.0,13.0,71,0.00,,,0.00,Weather View 32 v70,2013-01-15 14:13:00,
2013-01-15 05:18:00,16.7,8.9,29.69,WSW,240,3.0,13.0,71,0.00,,,0.00,Weather View 32 v70,2013-01-15 14:18:00,
2013-01-15 05:23:00,16.7,9.2,29.69,WSW,240,3.0,13.0,72,0.00,,,0.00,Weather View 32 v70,2013-01-15 14:23:00,
2013-01-15 05:28:00,16.6,9.2,29.70,WSW,240,3.0,13.0,72,0.00,,,0.00,Weather View 32 v70,2013-01-15 14:28:00,
2013-01-15 05:33:00,16.6,9.5,29.70,WSW,240,0.0,13.0,73,0.00,,,0.00,Weather View 32 v70,2013-01-15 14:33:00,
2013-01-15 05:38:00,16.6,9.5,29.70,WSW,240,3.0,13.0,73,0.00,,,0.00,Weather View 32 v70,2013-01-15 14:38:00,
2013-01-15 05:43:00,16.5,9.1,29.70,WSW,240,3.0,13.0,72,0.00,,,0.00,Weather View 32 v70,2013-01-15 14:43:00,
2013-01-15 05:48:00,16.5,9.4,29.70,WSW,240,1.0,13.0,73,0.00,,,0.00,Weather View 32 v70,2013-01-15 14:48:00,
2013-01-15 05:53:00,16.5,9.4,29.70,WSW,240,3.0,12.0,73,0.00,,,0.00,Weather View 32 v70,2013-01-15 14:53:00,
2013-01-15 05:58:00,16.5,9.4,29.70,WSW,240,3.0,10.0,73,0.00,,,0.00,Weather View 32 v70,2013-01-15 14:58:00,
2013-01-15 06:03:00,16.4,9.0,29.71,WSW,240,3.0,8.0,72,0.00,,,0.00,Weather View 32 v70,2013-01-15 15:03:00,
2013-01-15 06:08:00,16.3,9.2,29.71,WSW,240,5.0,8.0,73,0.00,,,0.00,Weather View 32 v70,2013-01-15 15:08:00,
2013-01-15 06:13:00,16.3,8.9,29.70,WSW,240,3.0,8.0,72,0.00,,,0.00,Weather View 32 v70,2013-01-15 15:13:00,
2013-01-15 06:18:00,16.2,9.1,29.70,WSW,240,3.0,8.0,73,0.00,,,0.00,Weather View 32 v70,2013-01-15 15:18:00,
2013-01-15 06:23:00,16.1,8.7,29.71,WSW,240,2.0,8.0,72,0.00,,,0.00,Weather View 32 v70,2013-01-15 15:23:00,
2013-01-15 06:28:00,16.0,8.9,29.71,WSW,240,2.0,8.0,73,0.00,,,0.00,Weather View 32 v70,2013-01-15 15:28:00,
2013-01-15 06:30:00,16.1,8.7,29.71,WSW,240,2.0,8.0,72,0.00,,,0.00,Weather View 32 v70,2013-01-15 15:30:00,
2013-01-15 06:33:00,15.8,8.7,29.71,WSW,240,1.0,8.0,73,0.00,,,0.00,Weather View 32 v70,2013-01-15 15:33:00,
2013-01-15 06:38:00,15.6,8.5,29.71,WSW,240,1.0,8.0,73,0.00,,,0.00,Weather View 32 v70,2013-01-15 15:38:00,
2013-01-15 06:43:00,15.4,8.3,29.72,WSW,240,2.0,8.0,73,0.00,,,0.00,Weather View 32 v70,2013-01-15 15:43:00,
2013-01-15 06:48:00,15.3,8.2,29.72,WSW,240,1.0,8.0,73,0.00,,,0.00,Weather View 32 v70,2013-01-15 15:48:00,
2013-01-15 06:53:00,15.0,8.2,29.72,WSW,240,2.0,8.0,74,0.00,,,0.00,Weather View 32 v70,2013-01-15 15:53:00,
2013-01-15 06:58:00,14.7,7.9,29.72,WSW,240,2.0,8.0,74,0.00,,,0.00,Weather View 32 v70,2013-01-15 15:58:00,
2013-01-15 07:03:00,14.5,8.0,29.72,WSW,240,0.0,8.0,75,0.00,,,0.00,Weather View 32 v70,2013-01-15 16:03:00,
2013-01-15 07:08:00,14.3,7.8,29.73,WSW,240,0.0,8.0,75,0.00,,,0.00,Weather View 32 v70,2013-01-15 16:08:00,
2013-01-15 07:13:00,14.3,7.8,29.73,WSW,240,1.0,6.0,75,0.00,,,0.00,Weather View 32 v70,2013-01-15 16:13:00,
2013-01-15 07:18:00,14.1,7.6,29.73,WSW,240,1.0,6.0,75,0.00,,,0.00,Weather View 32 v70,2013-01-15 16:18:00,
2013-01-15 07:23:00,13.8,7.4,29.73,WSW,240,0.0,6.0,75,0.00,,,0.00,Weather View 32 v70,2013-01-15 16:23:00,
2013-01-15 07:28:00,13.5,7.4,29.73,WSW,240,0.0,6.0,76,0.00,,,0.00,Weather View 32 v70,2013-01-15 16:28:00,
2013-01-15 07:30:00,14.0,7.5,29.73,WSW,240,0.0,6.0,75,0.00,,,0.00,Weather View 32 v70,2013-01-15 16:30:00,
2013-01-15 07:33:00,13.1,7.3,29.73,WSW,240,0.0,5.0,77,0.00,,,0.00,Weather View 32 v70,2013-01-15 16:33:00,
2013-01-15 07:38:00,12.8,7.0,29.73,WSW,240,0.0,5.0,77,0.00,,,0.00,Weather View 32 v70,2013-01-15 16:38:00,
2013-01-15 07:43:00,12.4,6.6,29.74,WSW,240,0.0,5.0,77,0.00,,,0.00,Weather View 32 v70,2013-01-15 16:43:00,
2013-01-15 07:48:00,12.1,6.6,29.74,WSW,240,0.0,4.0,78,0.00,,,0.00,Weather View 32 v70,2013-01-15 16:48:00,
2013-01-15 07:53:00,11.9,6.4,29.73,WSW,240,0.0,4.0,78,0.00,,,0.00,Weather View 32 v70,2013-01-15 16:53:00,
2013-01-15 07:58:00,11.7,6.5,29.73,WSW,240,0.0,4.0,79,0.00,,,0.00,Weather View 32 v70,2013-01-15 16:58:00,
2013-01-15 08:03:00,11.8,6.8,29.74,WSW,240,0.0,4.0,80,0.00,,,0.00,Weather View 32 v70,2013-01-15 17:03:00,
2013-01-15 08:08:00,11.9,6.9,29.74,WSW,240,0.0,4.0,80,0.00,,,0.00,Weather View 32 v70,2013-01-15 17:08:00,
2013-01-15 08:13:00,11.9,6.9,29.74,WSW,240,0.0,3.0,80,0.00,,,0.00,Weather View 32 v70,2013-01-15 17:13:00,
2013-01-15 08:18:00,11.8,6.8,29.74,WSW,240,0.0,2.0,80,0.00,,,0.00,Weather View 32 v70,2013-01-15 17:18:00,
2013-01-15 08:23:00,11.7,6.7,29.75,WSW,240,0.0,2.0,80,0.00,,,0.00,Weather View 32 v70,2013-01-15 17:23:00,
2013-01-15 08:28:00,11.6,6.6,29.75,WSW,240,0.0,2.0,80,0.00,,,0.00,Weather View 32 v70,2013-01-15 17:28:00,
2013-01-15 08:30:00,11.7,6.7,29.75,WSW,240,0.0,2.0,80,0.00,,,0.00,Weather View 32 v70,2013-01-15 17:30:00,
2013-01-15 08:33:00,11.6,6.9,29.75,WSW,240,0.0,2.0,81,0.00,,,0.00,Weather View 32 v70,2013-01-15 17:33:00,
2013-01-15 08:38:00,11.6,6.9,29.76,WSW,240,0.0,2.0,81,0.00,,,0.00,Weather View 32 v70,2013-01-15 17:38:00,
2013-01-15 08:43:00,11.6,6.9,29.76,WSW,240,0.0,2.0,81,0.00,,,0.00,Weather View 32 v70,2013-01-15 17:43:00,
2013-01-15 08:48:00,11.7,7.0,29.75,WSW,240,0.0,2.0,81,0.00,,,0.00,Weather View 32 v70,2013-01-15 17:48:00,
2013-01-15 08:53:00,11.8,7.4,29.75,WSW,240,0.0,2.0,82,0.00,,,0.00,Weather View 32 v70,2013-01-15 17:53:00,
2013-01-15 08:58:00,11.9,7.5,29.75,WSW,240,0.0,2.0,82,0.00,,,0.00,Weather View 32 v70,2013-01-15 17:58:00,
2013-01-15 09:03:00,12.0,7.6,29.75,WSW,240,0.0,1.0,82,0.00,,,0.00,Weather View 32 v70,2013-01-15 18:03:00,
2013-01-15 09:08:00,12.1,7.7,29.75,WSW,240,0.0,1.0,82,0.00,,,0.00,Weather View 32 v70,2013-01-15 18:08:00,
2013-01-15 09:13:00,12.2,8.0,29.75,WSW,240,0.0,1.0,83,0.00,,,0.00,Weather View 32 v70,2013-01-15 18:13:00,
2013-01-15 09:18:00,12.3,8.1,29.75,WSW,240,0.0,1.0,83,0.00,,,0.00,Weather View 32 v70,2013-01-15 18:18:00,
2013-01-15 09:23:00,12.3,7.9,29.75,WSW,240,0.0,1.0,82,0.00,,,0.00,Weather View 32 v70,2013-01-15 18:23:00,
2013-01-15 09:28:00,12.4,8.2,29.75,WSW,240,0.0,1.0,83,0.00,,,0.00,Weather View 32 v70,2013-01-15 18:28:00,
2013-01-15 09:30:00,12.3,7.9,29.75,WSW,240,0.0,1.0,82,0.00,,,0.00,Weather View 32 v70,2013-01-15 18:30:00,
2013-01-15 09:33:00,12.6,8.4,29.75,WSW,240,0.0,2.0,83,0.00,,,0.00,Weather View 32 v70,2013-01-15 18:33:00,
2013-01-15 09:38:00,12.8,8.6,29.76,WSW,240,0.0,2.0,83,0.00,,,0.00,Weather View 32 v70,2013-01-15 18:38:00,
2013-01-15 09:43:00,12.9,8.7,29.75,WSW,240,0.0,2.0,83,0.00,,,0.00,Weather View 32 v70,2013-01-15 18:43:00,
2013-01-15 09:48:00,12.9,8.7,29.75,WSW,240,0.0,2.0,83,0.00,,,0.00,Weather View 32 v70,2013-01-15 18:48:00,
2013-01-15 09:53:00,12.9,8.7,29.76,WSW,240,1.0,2.0,83,0.00,,,0.00,Weather View 32 v70,2013-01-15 18:53:00,
2013-01-15 09:58:00,13.0,8.8,29.76,WSW,240,0.0,2.0,83,0.00,,,0.00,Weather View 32 v70,2013-01-15 18:58:00,
2013-01-15 10:03:00,13.2,9.0,29.76,WSW,240,1.0,2.0,83,0.00,,,0.00,Weather View 32 v70,2013-01-15 19:03:00,
2013-01-15 10:08:00,13.3,9.4,29.76,WSW,240,0.0,2.0,84,0.00,,,0.00,Weather View 32 v70,2013-01-15 19:08:00,
2013-01-15 10:13:00,13.4,9.5,29.76,WSW,240,0.0,2.0,84,0.00,,,0.00,Weather View 32 v70,2013-01-15 19:13:00,
2013-01-15 10:18:00,13.4,9.5,29.76,WSW,240,0.0,2.0,84,0.00,,,0.00,Weather View 32 v70,2013-01-15 19:18:00,
2013-01-15 10:23:00,13.5,9.3,29.76,WSW,240,0.0,2.0,83,0.00,,,0.00,Weather View 32 v70,2013-01-15 19:23:00,
2013-01-15 10:28:00,13.6,9.4,29.76,WSW,240,0.0,2.0,83,0.00,,,0.00,Weather View 32 v70,2013-01-15 19:28:00,
2013-01-15 10:30:00,13.5,9.6,29.76,WSW,240,0.0,2.0,84,0.00,,,0.00,Weather View 32 v70,2013-01-15 19:30:00,
2013-01-15 10:32:00,13.7,9.5,29.76,WSW,240,1.0,2.0,83,0.00,,,0.00,Weather View 32 v70,2013-01-15 19:32:00,
2013-01-15 10:37:00,13.7,9.2,29.76,WSW,240,0.0,2.0,82,0.00,,,0.00,Weather View 32 v70,2013-01-15 19:37:00,
2013-01-15 10:43:00,13.7,9.5,29.77,WSW,240,0.0,2.0,83,0.00,,,0.00,Weather View 32 v70,2013-01-15 19:43:00,
2013-01-15 10:47:00,13.7,9.5,29.77,WSW,240,0.0,2.0,83,0.00,,,0.00,Weather View 32 v70,2013-01-15 19:47:00,
2013-01-15 10:52:00,13.7,9.2,29.77,WSW,240,0.0,2.0,82,0.00,,,0.00,Weather View 32 v70,2013-01-15 19:52:00,
2013-01-15 10:57:00,13.7,9.5,29.77,WSW,240,0.0,2.0,83,0.00,,,0.00,Weather View 32 v70,2013-01-15 19:57:00,
2013-01-15 11:02:00,13.7,9.5,29.77,WSW,240,1.0,2.0,83,0.00,,,0.00,Weather View 32 v70,2013-01-15 20:02:00,
2013-01-15 11:07:00,13.7,9.5,29.78,WSW,240,0.0,2.0,83,0.00,,,0.00,Weather View 32 v70,2013-01-15 20:07:00,
2013-01-15 11:12:00,13.8,9.3,29.78,WSW,240,0.0,2.0,82,0.00,,,0.00,Weather View 32 v70,2013-01-15 20:12:00,
2013-01-15 11:17:00,13.8,9.3,29.78,WSW,240,0.0,2.0,82,0.00,,,0.00,Weather View 32 v70,2013-01-15 20:17:00,
2013-01-15 11:22:00,13.8,9.3,29.78,WSW,240,0.0,2.0,82,0.00,,,0.00,Weather View 32 v70,2013-01-15 20:22:00,
2013-01-15 11:27:00,13.8,9.3,29.78,WSW,240,1.0,2.0,82,0.00,,,0.00,Weather View 32 v70,2013-01-15 20:27:00,
2013-01-15 11:30:00,13.8,9.3,29.78,WSW,240,0.0,2.0,82,0.00,,,0.00,Weather View 32 v70,2013-01-15 20:30:00,
2013-01-15 11:32:00,13.9,9.4,29.79,WSW,240,0.0,2.0,82,0.00,,,0.00,Weather View 32 v70,2013-01-15 20:32:00,
2013-01-15 11:37:00,13.9,9.7,29.79,WSW,240,1.0,2.0,83,0.00,,,0.00,Weather View 32 v70,2013-01-15 20:37:00,
2013-01-15 11:42:00,13.9,9.4,29.79,WSW,240,0.0,2.0,82,0.00,,,0.00,Weather View 32 v70,2013-01-15 20:42:00,
2013-01-15 11:47:00,13.9,9.4,29.79,WSW,240,1.0,3.0,82,0.00,,,0.00,Weather View 32 v70,2013-01-15 20:47:00,
2013-01-15 11:52:00,14.0,9.5,29.79,WSW,240,0.0,4.0,82,0.00,,,0.00,Weather View 32 v70,2013-01-15 20:52:00,
2013-01-15 11:57:00,14.0,9.5,29.79,WSW,240,1.0,4.0,82,0.00,,,0.00,Weather View 32 v70,2013-01-15 20:57:00,
2013-01-15 12:02:00,14.0,9.5,29.78,WSW,240,1.0,4.0,82,0.00,,,0.00,Weather View 32 v70,2013-01-15 21:02:00,
2013-01-15 12:07:00,14.1,9.6,29.79,WSW,240,1.0,4.0,82,0.00,,,0.00,Weather View 32 v70,2013-01-15 21:07:00,
2013-01-15 12:12:00,14.1,9.6,29.79,WSW,240,0.0,4.0,82,0.00,,,0.00,Weather View 32 v70,2013-01-15 21:12:00,
2013-01-15 12:17:00,14.2,9.7,29.79,WSW,240,0.0,4.0,82,0.00,,,0.00,Weather View 32 v70,2013-01-15 21:17:00,
2013-01-15 12:22:00,14.3,9.8,29.79,WSW,240,0.0,4.0,82,0.00,,,0.00,Weather View 32 v70,2013-01-15 21:22:00,
2013-01-15 12:27:00,14.3,9.8,29.79,WSW,240,0.0,4.0,82,0.00,,,0.00,Weather View 32 v70,2013-01-15 21:27:00,
2013-01-15 12:30:00,14.2,9.7,29.79,WSW,240,0.0,4.0,82,0.00,,,0.00,Weather View 32 v70,2013-01-15 21:30:00,
2013-01-15 12:32:00,14.2,9.7,29.79,WSW,240,1.0,4.0,82,0.00,,,0.00,Weather View 32 v70,2013-01-15 21:32:00,
2013-01-15 12:37:00,14.2,9.7,29.79,WSW,240,0.0,4.0,82,0.00,,,0.00,Weather View 32 v70,2013-01-15 21:37:00,
2013-01-15 12:42:00,14.2,9.7,29.79,WSW,240,1.0,4.0,82,0.00,,,0.00,Weather View 32 v70,2013-01-15 21:42:00,
2013-01-15 12:47:00,14.1,9.6,29.79,WSW,240,1.0,4.0,82,0.00,,,0.00,Weather View 32 v70,2013-01-15 21:47:00,
2013-01-15 12:52:00,14.0,9.5,29.79,WSW,240,0.0,3.0,82,0.00,,,0.00,Weather View 32 v70,2013-01-15 21:52:00,
2013-01-15 12:57:00,13.8,9.3,29.79,WSW,240,0.0,3.0,82,0.00,,,0.00,Weather View 32 v70,2013-01-15 21:57:00,
2013-01-15 13:02:00,13.8,9.3,29.79,WSW,240,0.0,3.0,82,0.00,,,0.00,Weather View 32 v70,2013-01-15 22:02:00,
2013-01-15 13:07:00,13.9,9.7,29.79,WSW,240,1.0,3.0,83,0.00,,,0.00,Weather View 32 v70,2013-01-15 22:07:00,
2013-01-15 13:12:00,14.1,9.6,29.79,WSW,240,1.0,3.0,82,0.00,,,0.00,Weather View 32 v70,2013-01-15 22:12:00,
2013-01-15 13:17:00,14.3,9.8,29.79,WSW,240,1.0,3.0,82,0.00,,,0.00,Weather View 32 v70,2013-01-15 22:17:00,
2013-01-15 13:22:00,14.5,10.0,29.79,WSW,240,1.0,3.0,82,0.00,,,0.00,Weather View 32 v70,2013-01-15 22:22:00,
2013-01-15 13:27:00,14.5,10.0,29.79,WSW,240,0.0,3.0,82,0.00,,,0.00,Weather View 32 v70,2013-01-15 22:27:00,
2013-01-15 13:30:00,14.4,9.9,29.79,WSW,240,0.0,3.0,82,0.00,,,0.00,Weather View 32 v70,2013-01-15 22:30:00,
2013-01-15 13:32:00,14.5,9.7,29.80,WSW,240,0.0,3.0,81,0.00,,,0.00,Weather View 32 v70,2013-01-15 22:32:00,
2013-01-15 13:37:00,14.3,9.5,29.80,WSW,240,0.0,3.0,81,0.00,,,0.00,Weather View 32 v70,2013-01-15 22:37:00,
2013-01-15 13:42:00,14.1,9.3,29.80,WSW,240,1.0,3.0,81,0.00,,,0.00,Weather View 32 v70,2013-01-15 22:42:00,
2013-01-15 13:47:00,14.1,9.3,29.81,WSW,240,3.0,3.0,81,0.00,,,0.00,Weather View 32 v70,2013-01-15 22:47:00,
2013-01-15 13:52:00,14.1,9.3,29.80,WSW,240,0.0,4.0,81,0.00,,,0.00,Weather View 32 v70,2013-01-15 22:52:00,
2013-01-15 13:57:00,13.9,9.2,29.80,WSW,240,0.0,4.0,81,0.00,,,0.00,Weather View 32 v70,2013-01-15 22:57:00,
2013-01-15 14:02:00,13.6,8.6,29.81,WSW,240,0.0,4.0,80,0.00,,,0.00,Weather View 32 v70,2013-01-15 23:02:00,
2013-01-15 14:07:00,13.2,8.2,29.80,WSW,240,0.0,4.0,80,0.00,,,0.00,Weather View 32 v70,2013-01-15 23:07:00,
2013-01-15 14:12:00,12.7,7.7,29.81,WSW,240,0.0,4.0,80,0.00,,,0.00,Weather View 32 v70,2013-01-15 23:12:00,
2013-01-15 14:17:00,12.3,7.3,29.81,WSW,240,0.0,4.0,80,0.00,,,0.00,Weather View 32 v70,2013-01-15 23:17:00,
2013-01-15 14:22:00,11.9,6.9,29.81,WSW,240,0.0,4.0,80,0.00,,,0.00,Weather View 32 v70,2013-01-15 23:22:00,
2013-01-15 14:27:00,11.5,6.8,29.82,WSW,240,0.0,4.0,81,0.00,,,0.00,Weather View 32 v70,2013-01-15 23:27:00,
2013-01-15 14:30:00,11.9,6.9,29.81,WSW,240,0.0,4.0,80,0.00,,,0.00,Weather View 32 v70,2013-01-15 23:30:00,
2013-01-15 14:32:00,11.2,6.5,29.82,WSW,240,0.0,4.0,81,0.00,,,0.00,Weather View 32 v70,2013-01-15 23:32:00,
2013-01-15 14:37:00,11.0,6.3,29.82,WSW,240,0.0,4.0,81,0.00,,,0.00,Weather View 32 v70,2013-01-15 23:37:00,
2013-01-15 14:42:00,10.7,6.0,29.82,WSW,240,0.0,4.0,81,0.00,,,0.00,Weather View 32 v70,2013-01-15 23:42:00,
2013-01-15 14:47:00,10.4,5.7,29.82,WSW,240,0.0,4.0,81,0.00,,,0.00,Weather View 32 v70,2013-01-15 23:47:00,
2013-01-15 14:52:00,10.3,5.6,29.81,WSW,240,0.0,2.0,81,0.00,,,0.00,Weather View 32 v70,2013-01-15 23:52:00,
2013-01-15 14:57:00,10.1,5.4,29.82,WSW,240,0.0,2.0,81,0.00,,,0.00,Weather View 32 v70,2013-01-15 23:57:00,
2013-01-15 15:02:00,10.1,5.4,29.82,WSW,240,0.0,2.0,81,0.00,,,0.00,Weather View 32 v70,2013-01-16 00:02:00,
2013-01-15 15:07:00,10.0,5.3,29.82,WSW,240,0.0,2.0,81,0.00,,,0.00,Weather View 32 v70,2013-01-16 00:07:00,
2013-01-15 15:12:00,10.1,5.7,29.82,WSW,240,1.0,2.0,82,0.00,,,0.00,Weather View 32 v70,2013-01-16 00:12:00,
2013-01-15 15:17:00,10.0,5.3,29.83,WSW,240,0.0,3.0,81,0.00,,,0.00,Weather View 32 v70,2013-01-16 00:17:00,
2013-01-15 15:22:00,10.0,5.3,29.83,WSW,240,0.0,3.0,81,0.00,,,0.00,Weather View 32 v70,2013-01-16 00:22:00,
2013-01-15 15:27:00,9.9,5.2,29.83,WSW,240,0.0,3.0,81,0.00,,,0.00,Weather View 32 v70,2013-01-16 00:27:00,
2013-01-15 15:30:00,10.0,5.3,29.83,WSW,240,0.0,3.0,81,0.00,,,0.00,Weather View 32 v70,2013-01-16 00:30:00,
2013-01-15 15:32:00,9.9,5.2,29.83,WSW,240,0.0,3.0,81,0.00,,,0.00,Weather View 32 v70,2013-01-16 00:32:00,
2013-01-15 15:37:00,10.0,5.6,29.83,WSW,240,0.0,3.0,82,0.00,,,0.00,Weather View 32 v70,2013-01-16 00:37:00,
2013-01-15 15:42:00,10.1,5.7,29.82,WSW,240,0.0,3.0,82,0.00,,,0.00,Weather View 32 v70,2013-01-16 00:42:00,
2013-01-15 15:47:00,10.2,5.8,29.82,WSW,240,0.0,3.0,82,0.00,,,0.00,Weather View 32 v70,2013-01-16 00:47:00,
2013-01-15 15:52:00,10.2,5.8,29.82,WSW,240,0.0,3.0,82,0.00,,,0.00,Weather View 32 v70,2013-01-16 00:52:00,
2013-01-15 15:57:00,10.2,5.8,29.82,WSW,240,0.0,3.0,82,0.00,,,0.00,Weather View 32 v70,2013-01-16 00:57:00,
2013-01-15 16:02:00,10.1,5.7,29.83,WSW,240,0.0,3.0,82,0.00,,,0.00,Weather View 32 v70,2013-01-16 01:02:00,
2013-01-15 16:07:00,10.0,5.6,29.83,WSW,240,0.0,3.0,82,0.00,,,0.00,Weather View 32 v70,2013-01-16 01:07:00,
2013-01-15 16:12:00,10.0,5.6,29.83,WSW,240,0.0,3.0,82,0.00,,,0.00,Weather View 32 v70,2013-01-16 01:12:00,
2013-01-15 16:17:00,10.0,5.6,29.83,WSW,240,0.0,2.0,82,0.00,,,0.00,Weather View 32 v70,2013-01-16 01:17:00,
2013-01-15 16:22:00,10.0,5.6,29.82,WSW,240,0.0,2.0,82,0.00,,,0.00,Weather View 32 v70,2013-01-16 01:22:00,
2013-01-15 16:27:00,10.0,5.6,29.82,WSW,240,0.0,2.0,82,0.00,,,0.00,Weather View 32 v70,2013-01-16 01:27:00,
2013-01-15 16:30:00,10.0,5.6,29.82,WSW,240,0.0,2.0,82,0.00,,,0.00,Weather View 32 v70,2013-01-16 01:30:00,
2013-01-15 16:32:00,10.0,5.6,29.82,WSW,240,0.0,2.0,82,0.00,,,0.00,Weather View 32 v70,2013-01-16 01:32:00,
2013-01-15 16:37:00,10.0,5.6,29.83,WSW,240,0.0,2.0,82,0.00,,,0.00,Weather View 32 v70,2013-01-16 01:37:00,
2013-01-15 16:42:00,10.0,5.6,29.83,WSW,240,0.0,2.0,82,0.00,,,0.00,Weather View 32 v70,2013-01-16 01:42:00,
2013-01-15 16:47:00,9.8,5.4,29.83,WSW,240,0.0,2.0,82,0.00,,,0.00,Weather View 32 v70,2013-01-16 01:47:00,
2013-01-15 16:52:00,9.8,5.4,29.82,WSW,240,0.0,2.0,82,0.00,,,0.00,Weather View 32 v70,2013-01-16 01:52:00,
2013-01-15 16:57:00,9.7,5.3,29.83,WSW,240,0.0,2.0,82,0.00,,,0.00,Weather View 32 v70,2013-01-16 01:57:00,
2013-01-15 17:02:00,9.6,5.2,29.83,WSW,240,0.0,2.0,82,0.00,,,0.00,Weather View 32 v70,2013-01-16 02:02:00,
2013-01-15 17:07:00,9.6,5.2,29.83,WSW,240,0.0,2.0,82,0.00,,,0.00,Weather View 32 v70,2013-01-16 02:07:00,
2013-01-15 17:12:00,9.5,4.9,29.83,WSW,240,0.0,2.0,81,0.00,,,0.00,Weather View 32 v70,2013-01-16 02:12:00,
2013-01-15 17:17:00,9.4,4.8,29.83,WSW,240,0.0,2.0,81,0.00,,,0.00,Weather View 32 v70,2013-01-16 02:17:00,
2013-01-15 17:22:00,9.3,4.7,29.83,WSW,240,1.0,2.0,81,0.00,,,0.00,Weather View 32 v70,2013-01-16 02:22:00,
2013-01-15 17:27:00,9.2,4.6,29.83,WSW,240,0.0,2.0,81,0.00,,,0.00,Weather View 32 v70,2013-01-16 02:27:00,
2013-01-15 17:30:00,9.3,4.7,29.83,WSW,240,1.0,2.0,81,0.00,,,0.00,Weather View 32 v70,2013-01-16 02:30:00,
2013-01-15 17:32:00,9.0,4.4,29.82,WSW,240,0.0,2.0,81,0.00,,,0.00,Weather View 32 v70,2013-01-16 02:32:00,
2013-01-15 17:37:00,8.9,4.3,29.82,WSW,240,1.0,2.0,81,0.00,,,0.00,Weather View 32 v70,2013-01-16 02:37:00,
2013-01-15 17:42:00,8.9,4.3,29.83,WSW,240,0.0,2.0,81,0.00,,,0.00,Weather View 32 v70,2013-01-16 02:42:00,
2013-01-15 17:47:00,8.8,4.2,29.83,WSW,240,0.0,2.0,81,0.00,,,0.00,Weather View 32 v70,2013-01-16 02:47:00,
2013-01-15 17:52:00,8.7,4.1,29.83,WSW,240,0.0,2.0,81,0.00,,,0.00,Weather View 32 v70,2013-01-16 02:52:00,
2013-01-15 17:57:00,8.7,4.1,29.83,WSW,240,0.0,2.0,81,0.00,,,0.00,Weather View 32 v70,2013-01-16 02:57:00,
2013-01-15 18:02:00,8.8,4.2,29.82,WSW,240,0.0,2.0,81,0.00,,,0.00,Weather View 32 v70,2013-01-16 03:02:00,
2013-01-15 18:07:00,8.7,4.1,29.83,WSW,240,0.0,2.0,81,0.00,,,0.00,Weather View 32 v70,2013-01-16 03:07:00,
2013-01-15 18:12:00,8.6,4.0,29.83,WSW,240,0.0,2.0,81,0.00,,,0.00,Weather View 32 v70,2013-01-16 03:12:00,
2013-01-15 18:17:00,8.5,3.9,29.82,WSW,240,0.0,2.0,81,0.00,,,0.00,Weather View 32 v70,2013-01-16 03:17:00,
2013-01-15 18:22:00,8.5,3.9,29.82,WSW,240,0.0,2.0,81,0.00,,,0.00,Weather View 32 v70,2013-01-16 03:22:00,
2013-01-15 18:27:00,8.5,3.9,29.82,WSW,240,0.0,2.0,81,0.00,,,0.00,Weather View 32 v70,2013-01-16 03:27:00,
2013-01-15 18:30:00,8.5,3.9,29.82,WSW,240,0.0,2.0,81,0.00,,,0.00,Weather View 32 v70,2013-01-16 03:30:00,
2013-01-15 18:32:00,8.4,3.8,29.82,WSW,240,1.0,2.0,81,0.00,,,0.00,Weather View 32 v70,2013-01-16 03:32:00,
2013-01-15 18:37:00,8.4,3.8,29.82,WSW,240,1.0,3.0,81,0.00,,,0.00,Weather View 32 v70,2013-01-16 03:37:00,
2013-01-15 18:42:00,8.3,3.7,29.83,WSW,240,1.0,3.0,81,0.00,,,0.00,Weather View 32 v70,2013-01-16 03:42:00,
2013-01-15 18:47:00,8.4,3.8,29.83,WSW,240,1.0,3.0,81,0.00,,,0.00,Weather View 32 v70,2013-01-16 03:47:00,
2013-01-15 18:52:00,8.4,3.8,29.83,WSW,240,0.0,3.0,81,0.00,,,0.00,Weather View 32 v70,2013-01-16 03:52:00,
2013-01-15 18:57:00,8.4,3.8,29.83,WSW,240,0.0,3.0,81,0.00,,,0.00,Weather View 32 v70,2013-01-16 03:57:00,
2013-01-15 19:02:00,8.4,3.8,29.83,WSW,240,0.0,3.0,81,0.00,,,0.00,Weather View 32 v70,2013-01-16 04:02:00,
2013-01-15 19:07:00,8.4,4.0,29.83,WSW,240,0.0,3.0,82,0.00,,,0.00,Weather View 32 v70,2013-01-16 04:07:00,
2013-01-15 19:12:00,8.5,3.9,29.83,WSW,240,0.0,3.0,81,0.00,,,0.00,Weather View 32 v70,2013-01-16 04:12:00,
2013-01-15 19:17:00,8.6,4.2,29.83,WSW,240,0.0,3.0,82,0.00,,,0.00,Weather View 32 v70,2013-01-16 04:17:00,
2013-01-15 19:22:00,8.7,4.3,29.83,WSW,240,0.0,3.0,82,0.00,,,0.00,Weather View 32 v70,2013-01-16 04:22:00,
2013-01-15 19:27:00,8.8,4.4,29.83,WSW,240,0.0,3.0,82,0.00,,,0.00,Weather View 32 v70,2013-01-16 04:27:00,
2013-01-15 19:30:00,8.7,4.3,29.83,WSW,240,2.0,3.0,82,0.00,,,0.00,Weather View 32 v70,2013-01-16 04:30:00,
2013-01-15 19:32:00,8.9,4.5,29.83,WSW,240,0.0,3.0,82,0.00,,,0.00,Weather View 32 v70,2013-01-16 04:32:00,
2013-01-15 19:37:00,8.9,4.5,29.83,WSW,240,0.0,2.0,82,0.00,,,0.00,Weather View 32 v70,2013-01-16 04:37:00,
2013-01-15 19:42:00,8.8,4.4,29.83,WSW,240,0.0,2.0,82,0.00,,,0.00,Weather View 32 v70,2013-01-16 04:42:00,
2013-01-15 19:47:00,8.8,4.4,29.83,WSW,240,0.0,2.0,82,0.00,,,0.00,Weather View 32 v70,2013-01-16 04:47:00,
2013-01-15 19:52:00,8.7,4.1,29.84,WSW,240,0.0,2.0,81,0.00,,,0.00,Weather View 32 v70,2013-01-16 04:52:00,
2013-01-15 19:57:00,8.6,4.2,29.83,WSW,240,0.0,2.0,82,0.00,,,0.00,Weather View 32 v70,2013-01-16 04:57:00,
2013-01-15 20:00:00,8.5,3.9,29.83,WSW,240,0.0,2.0,81,0.00,,,0.00,Weather View 32 v70,2013-01-16 05:00:00,
2013-01-15 20:01:00,8.5,3.9,29.84,WSW,240,0.0,2.0,81,0.00,,,0.00,Weather View 32 v70,2013-01-16 05:01:00,
2013-01-15 20:02:00,8.5,3.9,29.83,WSW,240,1.0,2.0,81,0.00,,,0.00,Weather View 32 v70,2013-01-16 05:02:00,
2013-01-15 20:03:00,8.4,3.8,29.84,WSW,240,0.0,2.0,81,0.00,,,0.00,Weather View 32 v70,2013-01-16 05:03:00,
2013-01-15 20:08:00,8.3,3.7,29.83,WSW,240,0.0,2.0,81,0.00,,,0.00,Weather View 32 v70,2013-01-16 05:08:00,
2013-01-15 20:13:00,8.1,3.5,29.83,WSW,240,0.0,2.0,81,0.00,,,0.00,Weather View 32 v70,2013-01-16 05:13:00,
2013-01-15 20:18:00,8.0,3.4,29.84,WSW,240,1.0,2.0,81,0.00,,,0.00,Weather View 32 v70,2013-01-16 05:18:00,
2013-01-15 20:23:00,7.7,3.1,29.84,WSW,240,0.0,2.0,81,0.00,,,0.00,Weather View 32 v70,2013-01-16 05:23:00,
2013-01-15 20:28:00,7.6,3.0,29.84,WSW,240,0.0,2.0,81,0.00,,,0.00,Weather View 32 v70,2013-01-16 05:28:00,
2013-01-15 20:30:00,7.8,3.2,29.84,WSW,240,0.0,2.0,81,0.00,,,0.00,Weather View 32 v70,2013-01-16 05:30:00,
2013-01-15 20:33:00,7.5,2.6,29.84,WSW,240,0.0,2.0,80,0.00,,,0.00,Weather View 32 v70,2013-01-16 05:33:00,
2013-01-15 20:38:00,7.4,2.5,29.84,WSW,240,0.0,2.0,80,0.00,,,0.00,Weather View 32 v70,2013-01-16 05:38:00,
2013-01-15 20:43:00,7.2,2.1,29.84,WSW,240,0.0,2.0,79,0.00,,,0.00,Weather View 32 v70,2013-01-16 05:43:00,
2013-01-15 20:48:00,7.0,1.9,29.84,WSW,240,0.0,2.0,79,0.00,,,0.00,Weather View 32 v70,2013-01-16 05:48:00,
2013-01-15 20:53:00,6.8,1.7,29.84,WSW,240,0.0,2.0,79,0.00,,,0.00,Weather View 32 v70,2013-01-16 05:53:00,
2013-01-15 20:58:00,6.6,1.5,29.84,WSW,240,0.0,2.0,79,0.00,,,0.00,Weather View 32 v70,2013-01-16 05:58:00,
2013-01-15 21:03:00,6.3,1.2,29.84,WSW,240,0.0,2.0,79,0.00,,,0.00,Weather View 32 v70,2013-01-16 06:03:00,
2013-01-15 21:08:00,6.2,1.1,29.84,WSW,240,0.0,2.0,79,0.00,,,0.00,Weather View 32 v70,2013-01-16 06:08:00,
2013-01-15 21:13:00,6.2,1.4,29.84,WSW,240,0.0,2.0,80,0.00,,,0.00,Weather View 32 v70,2013-01-16 06:13:00,
2013-01-15 21:18:00,6.3,1.2,29.83,WSW,240,0.0,2.0,79,0.00,,,0.00,Weather View 32 v70,2013-01-16 06:18:00,
2013-01-15 21:23:00,6.2,1.1,29.84,WSW,240,0.0,2.0,79,0.00,,,0.00,Weather View 32 v70,2013-01-16 06:23:00,
2013-01-15 21:28:00,6.0,0.6,29.84,WSW,240,0.0,2.0,78,0.00,,,0.00,Weather View 32 v70,2013-01-16 06:28:00,
2013-01-15 21:30:00,6.2,1.1,29.84,WSW,240,0.0,2.0,79,0.00,,,0.00,Weather View 32 v70,2013-01-16 06:30:00,
2013-01-15 21:33:00,5.9,0.5,29.83,WSW,240,0.0,2.0,78,0.00,,,0.00,Weather View 32 v70,2013-01-16 06:33:00,
2013-01-15 21:38:00,5.8,0.7,29.83,WSW,240,0.0,2.0,79,0.00,,,0.00,Weather View 32 v70,2013-01-16 06:38:00,
2013-01-15 21:43:00,5.7,0.6,29.84,WSW,240,0.0,2.0,79,0.00,,,0.00,Weather View 32 v70,2013-01-16 06:43:00,
2013-01-15 21:48:00,5.7,0.6,29.84,WSW,240,0.0,2.0,79,0.00,,,0.00,Weather View 32 v70,2013-01-16 06:48:00,
2013-01-15 21:53:00,5.8,0.7,29.83,WSW,240,0.0,2.0,79,0.00,,,0.00,Weather View 32 v70,2013-01-16 06:53:00,
2013-01-15 21:58:00,5.7,0.3,29.84,WSW,240,0.0,2.0,78,0.00,,,0.00,Weather View 32 v70,2013-01-16 06:58:00,
2013-01-15 22:03:00,5.7,0.6,29.84,WSW,240,0.0,0.0,79,0.00,,,0.00,Weather View 32 v70,2013-01-16 07:03:00,
2013-01-15 22:08:00,5.7,0.3,29.83,WSW,240,0.0,1.0,78,0.00,,,0.00,Weather View 32 v70,2013-01-16 07:08:00,
2013-01-15 22:13:00,5.6,0.5,29.83,WSW,240,0.0,1.0,79,0.00,,,0.00,Weather View 32 v70,2013-01-16 07:13:00,
2013-01-15 22:18:00,5.6,0.5,29.84,WSW,240,0.0,1.0,79,0.00,,,0.00,Weather View 32 v70,2013-01-16 07:18:00,
2013-01-15 22:23:00,5.5,0.4,29.84,WSW,240,0.0,1.0,79,0.00,,,0.00,Weather View 32 v70,2013-01-16 07:23:00,
2013-01-15 22:28:00,5.4,0.0,29.84,WSW,240,0.0,1.0,78,0.00,,,0.00,Weather View 32 v70,2013-01-16 07:28:00,
2013-01-15 22:30:00,5.6,0.5,29.84,WSW,240,0.0,1.0,79,0.00,,,0.00,Weather View 32 v70,2013-01-16 07:30:00,
2013-01-15 22:33:00,5.3,-0.1,29.84,WSW,240,0.0,1.0,78,0.00,,,0.00,Weather View 32 v70,2013-01-16 07:33:00,
2013-01-15 22:38:00,5.2,-0.2,29.84,WSW,240,0.0,1.0,78,0.00,,,0.00,Weather View 32 v70,2013-01-16 07:38:00,
2013-01-15 22:43:00,5.0,-0.1,29.84,WSW,240,0.0,2.0,79,0.00,,,0.00,Weather View 32 v70,2013-01-16 07:43:00,
2013-01-15 22:48:00,5.0,-0.1,29.83,WSW,240,0.0,2.0,79,0.00,,,0.00,Weather View 32 v70,2013-01-16 07:48:00,
2013-01-15 22:53:00,5.0,-0.1,29.84,WSW,240,0.0,2.0,79,0.00,,,0.00,Weather View 32 v70,2013-01-16 07:53:00,
2013-01-15 22:58:00,4.9,-0.4,29.84,WSW,240,0.0,2.0,78,0.00,,,0.00,Weather View 32 v70,2013-01-16 07:58:00,
2013-01-15 23:03:00,4.7,-0.6,29.83,WSW,240,0.0,2.0,78,0.00,,,0.00,Weather View 32 v70,2013-01-16 08:03:00,
2013-01-15 23:08:00,4.5,-0.8,29.83,WSW,240,0.0,2.0,78,0.00,,,0.00,Weather View 32 v70,2013-01-16 08:08:00,
2013-01-15 23:13:00,4.4,-0.9,29.83,WSW,240,1.0,2.0,78,0.00,,,0.00,Weather View 32 v70,2013-01-16 08:13:00,
2013-01-15 23:18:00,4.3,-1.0,29.84,WSW,240,0.0,2.0,78,0.00,,,0.00,Weather View 32 v70,2013-01-16 08:18:00,
2013-01-15 23:23:00,4.1,-1.8,29.84,WSW,240,0.0,2.0,76,0.00,,,0.00,Weather View 32 v70,2013-01-16 08:23:00,
2013-01-15 23:28:00,3.8,-2.1,29.84,WSW,240,0.0,2.0,76,0.00,,,0.00,Weather View 32 v70,2013-01-16 08:28:00,
2013-01-15 23:30:00,4.2,-1.4,29.84,WSW,240,1.0,2.0,77,0.00,,,0.00,Weather View 32 v70,2013-01-16 08:30:00,
2013-01-15 23:33:00,3.4,-2.5,29.84,WSW,240,0.0,2.0,76,0.00,,,0.00,Weather View 32 v70,2013-01-16 08:33:00,
2013-01-15 23:38:00,2.9,-3.2,29.84,WSW,240,0.0,2.0,75,0.00,,,0.00,Weather View 32 v70,2013-01-16 08:38:00,
2013-01-15 23:43:00,2.6,-4.1,29.84,WSW,240,0.0,2.0,73,0.00,,,0.00,Weather View 32 v70,2013-01-16 08:43:00,
2013-01-15 23:48:00,2.2,-4.5,29.84,WSW,240,0.0,2.0,73,0.00,,,0.00,Weather View 32 v70,2013-01-16 08:48:00,
2013-01-15 23:53:00,1.9,-4.7,29.84,WSW,240,0.0,2.0,73,0.00,,,0.00,Weather View 32 v70,2013-01-16 08:53:00,
2013-01-15 23:58:00,1.5,-5.1,29.84,WSW,240,0.0,2.0,73,0.00,,,0.00,Weather View 32 v70,2013-01-16 08:58:00,